Location: Catstown
(52.4386°N, 7.2633°W)
Time: 11:56:05
(UTC+00:00)

ATLAS 2AS CENTAUR R/B - Pass Details

Date: 18 September 2020
Orbit: 939 x 1273 km, 63.7° (Epoch: 19 October)

Event Time Altitude Azimuth Distance (km) Brightness Sun altitude
Rises 21:01:48 0° 189° (S) 4,194 5.6 -21.7°
Reaches altitude 10° 21:04:46 10° 182° (S) 3,248 4.9 -22.1°
Enters shadow 21:04:48 10° 182° (S) 3,241 4.9 -22.1°
Exits shadow 21:11:56 39° 118° (ESE) 1,810 3.4 -23.0°
Maximum altitude 21:11:57 39° 117° (ESE) 1,810 3.4 -23.0°
Drops below altitude 10° 21:19:05 10° 53° (NE) 3,234 5.1 -23.8°
Sets 21:22:01 0° 46° (NE) 4,175 5.7 -24.2°
